EW0349 Weather Reports


time (UTC)temp
F
wind
direction
speed
knots
gust
knots
rain 1hr
in
rain 24hr
in
rain mn
in
humidity
%
barometer
mb
20260507121527 51 275 0.0 0.0 0.00 0.00 0.00 48 1020.2
20260507120034 52 275 0.0 0.0 0.00 0.00 0.00 49 1020.4
20260507114524 51 275 0.0 1.7 0.00 0.00 0.00 50 1020.4
20260507113023 51 275 0.0 0.0 0.00 0.00 0.00 50 1020.5
20260507111521 52 275 0.0 0.0 0.00 0.00 0.00 52 1020.6
20260507110024 52 275 0.0 0.9 0.00 0.00 0.00 54 1020.6
20260507104519 52 275 0.0 1.7 0.00 0.00 0.00 55 1020.6
20260507103020 52 275 0.0 0.9 0.00 0.00 0.00 54 1020.7
20260507101518 52 275 0.0 1.7 0.00 0.00 0.00 55 1020.8
20260507100021 52 274 0.0 0.9 0.00 0.00 0.00 55 1020.9
20260507094512 52 274 0.0 1.7 0.00 0.00 0.00 55 1020.9
20260507093011 52 274 0.0 2.6 0.00 0.00 0.00 56 1021.1
20260507091509 52 273 0.0 0.0 0.00 0.00 0.00 55 1021.2
20260507090008 52 273 0.0 1.7 0.00 0.00 0.00 57 1021.3
20260507084507 52 273 0.0 1.7 0.00 0.00 0.00 56 1021.4
20260507083007 52 273 0.0 1.7 0.00 0.00 0.00 57 1021.2
20260507081505 51 273 0.0 1.7 0.00 0.00 0.00 57 1021.3
20260507080004 51 290 0.0 2.6 0.00 0.00 0.00 58 1021.3
20260507074505 51 283 0.0 2.6 0.00 0.00 0.00 58 1021.3
20260507073002 51 280 0.9 3.5 0.00 0.00 0.00 58 1021.4
20260507071600 51 271 0.0 2.6 0.00 0.00 0.00 58 1021.3
20260507071501 51 271 0.0 2.6 0.00 0.00 0.00 58 1021.3
20260507064554 51 271 0.0 2.6 0.00 0.00 0.00 59 1021.2
20260507063051 51 273 0.0 5.2 0.00 0.00 0.00 59 1021.2
20260507061545 51 278 0.0 3.5 0.00 0.00 0.00 58 1021.2
20260507060040 51 5 0.0 2.6 0.00 0.00 0.00 58 1021.3
20260507054541 51 312 0.0 5.2 0.00 0.00 0.00 60 1021.1
20260507053032 51 162 0.0 2.6 0.00 0.00 0.00 58 1021.2
20260507051527 51 83 0.0 1.7 0.00 0.00 0.00 59 1021.3
20260507050032 51 118 0.0 3.5 0.00 0.00 0.00 60 1021.2
20260507044523 52 211 0.0 2.6 0.00 0.00 0.00 61 1021.2
20260507043014 52 211 0.0 2.6 0.00 0.00 0.00 62 1021.0
20260507041523 53 271 0.9 5.2 0.00 0.00 0.00 64 1020.9
20260507040006 53 254 0.0 2.6 0.00 0.00 0.00 65 1020.6
20260507034501 54 252 0.9 3.5 0.00 0.00 0.00 67 1020.5
20260507033057 55 311 0.0 4.3 0.00 0.00 0.00 69 1020.2
20260507031553 56 290 0.0 2.6 0.00 0.00 0.00 69 1020.1
20260507030048 57 299 0.0 2.6 0.00 0.00 0.00 69 1019.9
20260507024556 58 286 0.0 6.1 0.00 0.00 0.00 69 1019.8
20260507023042 59 301 0.9 4.3 0.00 0.00 0.00 69 1019.8
20260507021536 61 277 0.9 5.2 0.00 0.00 0.00 67 1019.8
20260507020036 62 346 0.9 4.3 0.00 0.00 0.00 65 1019.8
20260507014539 63 74 0.0 4.3 0.00 0.00 0.00 65 1019.8
20260507013026 64 285 1.7 5.2 0.00 0.00 0.00 64 1019.8
20260507011520 65 296 0.9 5.2 0.00 0.00 0.00 63 1019.8
20260507010014 65 311 2.6 7.0 0.00 0.00 0.00 63 1019.8
20260507004525 66 296 0.9 4.3 0.00 0.00 0.00 63 1019.7
20260507003005 67 295 1.7 6.1 0.00 0.00 0.00 61 1019.7
20260507001501 67 312 1.7 5.2 0.00 0.00 0.00 61 1019.6
20260507000057 68 289 2.6 6.1 0.00 0.00 0.00 60 1019.5
20260506234600 69 300 1.7 5.2 0.00 0.00 0.00 60 1019.4
20260506233047 70 300 1.7 5.2 0.00 0.00 0.00 58 1019.4
20260506231551 70 322 0.9 3.5 0.00 0.00 0.00 58 1019.4
20260506230052 69 230 0.9 7.0 0.00 0.00 0.00 59 1019.5
20260506224535 69 332 0.0 2.6 0.00 0.00 0.00 61 1019.6
20260506223044 69 263 0.0 3.5 0.00 0.00 0.00 58 1019.7
20260506221525 67 182 0.9 4.3 0.00 0.00 0.00 60 1019.9
20260506220024 68 182 1.7 5.2 0.00 0.00 0.00 59 1020.1
20260506214517 67 316 0.9 5.2 0.00 0.00 0.00 60 1019.9
20260506213014 66 218 0.9 3.5 0.00 0.00 0.00 61 1020.1
20260506211632 66 258 0.9 5.2 0.00 0.00 0.00 60 1020.1
20260506210002 64 55 0.0 3.5 0.00 0.00 0.00 64 1020.4
20260506204600 64 315 0.9 4.3 0.00 0.00 0.00 62 1020.5
20260506203054 63 306 0.9 6.1 0.00 0.00 0.00 63 1020.7
20260506201559 63 288 0.9 3.5 0.00 0.00 0.00 63 1020.6
20260506200044 63 215 0.9 4.3 0.00 0.00 0.00 62 1020.6
20260506194554 62 167 2.6 6.1 0.00 0.00 0.00 62 1020.7
20260506193039 61 287 0.9 5.2 0.00 0.00 0.00 62 1020.6
20260506191538 60 281 0.9 5.2 0.00 0.00 0.00 61 1020.8
20260506190026 59 205 0.9 5.2 0.00 0.00 0.00 60 1021.1
20260506184522 59 192 0.9 4.3 0.00 0.00 0.00 58 1021.0
20260506183028 57 169 0.0 4.3 0.00 0.00 0.00 53 1021.1
20260506181513 57 177 0.9 4.3 0.00 0.00 0.00 50 1020.9
20260506180012 56 183 0.9 2.6 0.00 0.00 0.00 49 1020.9
20260506174510 55 217 0.0 2.6 0.00 0.00 0.00 47 1021.1
20260506173109 55 217 0.9 3.5 0.00 0.00 0.00 46 1021.2
20260506171556 55 187 0.0 3.5 0.00 0.00 0.00 43 1020.9
20260506170109 54 209 0.0 2.6 0.00 0.00 0.00 40 1021.0
20260506164548 53 209 0.0 3.5 0.00 0.00 0.00 34 1021.0
20260506163054 53 207 0.0 0.9 0.00 0.00 0.00 30 1021.0
20260506161541 53 194 1.7 5.2 0.00 0.00 0.00 28 1020.7
20260506160039 52 238 0.0 2.6 0.00 0.00 0.00 28 1020.5
20260506154533 52 278 0.9 5.2 0.00 0.00 0.00 30 1020.8
20260506153025 52 197 0.0 1.7 0.00 0.00 0.00 32 1021.0
20260506151521 52 22 0.0 1.7 0.00 0.00 0.00 36 1021.1
20260506150017 52 269 0.0 2.6 0.00 0.00 0.00 31 1021.1
20260506144512 52 259 0.0 1.7 0.00 0.00 0.00 28 1020.6
20260506143019 51 196 0.0 1.7 0.00 0.00 0.00 20 1020.0
20260506141507 50 292 0.0 0.9 0.00 0.00 0.00 14 1019.9
20260506140104 50 292 0.0 0.0 0.00 0.00 0.00 11 1019.9
20260506134556 50 292 0.0 0.0 0.00 0.00 0.00 14 1020.0
20260506133052 50 292 0.0 0.9 0.00 0.00 0.00 12 1020.0
20260506131546 50 292 0.0 0.0 0.00 0.00 0.00 12 1019.9
20260506130042 51 292 0.0 1.7 0.00 0.00 0.00 10 1019.7
20260506124538 51 292 0.0 0.9 0.00 0.00 0.00 9 1019.7
20260506123034 51 292 0.0 0.0 0.00 0.00 0.00 10 1019.8